User: anonymous   Login
Location: Unspecified
(0.0000°N, 0.0000°E)
Time: 23:28:25
(UTC+01:00)
Language:

ARIANE 5 R/B - Orbit

View from above orbital plane
View from above orbital plane
View from above satellite
View from above satellite

Ground track
Ground track

The orbit data is extracted from the following two-line orbital elements,

1 27387U 02009B   15063.24396763  .00000163  00000-0  70379-4 0  9993
2 27387 098.3521 022.2692 0033549 111.3182 025.1839 14.35810223681586
Epoch (UTC): 04 March 2015 05:51:18
Eccentricity: 0.0033549
inclination: 98.3521°
perigee height: 748 km
apogee height: 796 km
right ascension of ascending node: 22.2692°
argument of perigee: 111.3182°
revolutions per day: 14.35810223
mean anomaly at epoch: 25.1839°
orbit number at epoch: 68158

The dashed part of the orbit path shows where the satellite is in the earth's shadow,  

DLR